Meteo pe oră la Bolshoe Nikolskoe

Astăzi, 6 Mai, Joi

Timp Temperatura Precipitaţii Vânt Presiune Umiditate
00:00 +7°C° 0 mm 3 m/s 747 mmHg 82%
01:00 +7°C° 0 mm 3 m/s 747 mmHg 83%
02:00 +7°C° 0 mm 3 m/s 747 mmHg 84%
03:00 +7°C° 0 mm 3 m/s 747 mmHg 86%
04:00 +7°C° 0 mm 3 m/s 747 mmHg 84%
05:00 +8°C° 0 mm 3 m/s 747 mmHg 82%
06:00 +8°C° 0 mm 3 m/s 747 mmHg 80%
07:00 +10°C° 0 mm 4 m/s 747 mmHg 74%
08:00 +12°C° 0 mm 5 m/s 747 mmHg 68%
09:00 +14°C° 0 mm 5 m/s 747 mmHg 60%
10:00 +15°C° 0 mm 6 m/s 747 mmHg 57%
11:00 +16°C° 0 mm 6 m/s 747 mmHg 53%
12:00 +17°C° 0 mm 7 m/s 747 mmHg 49%
13:00 +17°C° 0 mm 7 m/s 747 mmHg 49%
14:00 +17°C° 0 mm 6 m/s 747 mmHg 49%
15:00 +17°C° 0 mm 6 m/s 746 mmHg 48%
16:00 +17°C° 0 mm 6 m/s 746 mmHg 52%
17:00 +16°C° 0 mm 5 m/s 746 mmHg 56%
18:00 +15°C° 0 mm 5 m/s 746 mmHg 59%
19:00 +14°C° 0 mm 5 m/s 746 mmHg 63%
20:00 +13°C° 0 mm 5 m/s 746 mmHg 67%
21:00 +12°C° 0 mm 4 m/s 746 mmHg 70%
22:00 +12°C° 0 mm 4 m/s 746 mmHg 70%
23:00 +12°C° 0 mm 5 m/s 745 mmHg 70%

Mâine, 7 Mai, Vineri

Timp Temperatura Precipitaţii Vânt Presiune Umiditate
00:00 +10°C° 0 mm 5 m/s 745 mmHg 69%
01:00 +11°C° 0 mm 4 m/s 745 mmHg 69%
02:00 +11°C° 0 mm 4 m/s 745 mmHg 69%
03:00 +11°C° 0 mm 4 m/s 745 mmHg 69%
04:00 +11°C° 0 mm 3 m/s 745 mmHg 73%
05:00 +11°C° 0 mm 3 m/s 745 mmHg 77%
06:00 +10°C° 0 mm 2 m/s 745 mmHg 81%
07:00 +10°C° 0.3 mm 3 m/s 746 mmHg 83%
08:00 +8°C° 0.3 mm 4 m/s 746 mmHg 85%
09:00 +7°C° 0.3 mm 4 m/s 747 mmHg 88%
10:00 +7°C° 0.7 mm 4 m/s 747 mmHg 87%
11:00 +8°C° 0.7 mm 3 m/s 748 mmHg 86%
12:00 +8°C° 0.7 mm 2 m/s 748 mmHg 84%
13:00 +9°C° 0 mm 2 m/s 748 mmHg 76%
14:00 +12°C° 0 mm 2 m/s 748 mmHg 69%
15:00 +13°C° 0 mm 2 m/s 748 mmHg 61%
16:00 +13°C° 0 mm 2 m/s 748 mmHg 58%
17:00 +14°C° 0 mm 1 m/s 748 mmHg 56%
18:00 +14°C° 0 mm 1 m/s 748 mmHg 54%
19:00 +12°C° 0 mm 1 m/s 749 mmHg 59%
20:00 +11°C° 0 mm 1 m/s 749 mmHg 65%
21:00 +8°C° 0 mm 2 m/s 750 mmHg 70%
22:00 +8°C° 0 mm 2 m/s 749 mmHg 73%
23:00 +7°C° 0 mm 2 m/s 749 mmHg 77%

Poimâine, 8 Mai, Sâmbătă

Timp Temperatura Precipitaţii Vânt Presiune Umiditate
00:00 +7°C° 0 mm 2 m/s 749 mmHg 80%
01:00 +6°C° 0 mm 2 m/s 749 mmHg 81%
02:00 +6°C° 0 mm 2 m/s 749 mmHg 83%
03:00 +5°C° 0 mm 2 m/s 749 mmHg 84%
04:00 +6°C° 0 mm 2 m/s 749 mmHg 84%
05:00 +5°C° 0 mm 3 m/s 749 mmHg 83%
06:00 +7°C° 0 mm 3 m/s 748 mmHg 82%
07:00 +7°C° 0 mm 4 m/s 748 mmHg 75%
08:00 +10°C° 0 mm 4 m/s 748 mmHg 69%
09:00 +12°C° 0 mm 5 m/s 747 mmHg 62%
10:00 +13°C° 0 mm 5 m/s 747 mmHg 59%
11:00 +14°C° 0 mm 6 m/s 746 mmHg 56%
12:00 +15°C° 0 mm 6 m/s 746 mmHg 54%
13:00 +16°C° 0 mm 6 m/s 745 mmHg 56%
14:00 +16°C° 0 mm 7 m/s 744 mmHg 59%
15:00 +17°C° 0 mm 7 m/s 744 mmHg 62%
16:00 +16°C° 0.3 mm 6 m/s 744 mmHg 70%
17:00 +14°C° 0.3 mm 6 m/s 744 mmHg 77%
18:00 +13°C° 0.3 mm 5 m/s 743 mmHg 85%
19:00 +13°C° 0.6 mm 5 m/s 743 mmHg 88%
20:00 +12°C° 0.6 mm 5 m/s 743 mmHg 90%
21:00 +12°C° 0.6 mm 5 m/s 743 mmHg 93%
22:00 +12°C° 1.4 mm 4 m/s 743 mmHg 94%
23:00 +11°C° 1.4 mm 4 m/s 743 mmHg 95%

9 Mai, Duminică

Timp Temperatura Precipitaţii Vânt Presiune Umiditate
00:00 +11°C° 1.4 mm 4 m/s 743 mmHg 96%
01:00 +10°C° 0.8 mm 4 m/s 744 mmHg 94%
02:00 +8°C° 0.8 mm 4 m/s 744 mmHg 93%
03:00 +7°C° 0.8 mm 4 m/s 745 mmHg 92%
04:00 +6°C° 0 mm 4 m/s 745 mmHg 91%
05:00 +5°C° 0 mm 4 m/s 746 mmHg 90%
06:00 +5°C° 0 mm 4 m/s 746 mmHg 89%
07:00 +5°C° 0 mm 4 m/s 747 mmHg 85%
08:00 +6°C° 0 mm 4 m/s 747 mmHg 82%
09:00 +6°C° 0 mm 4 m/s 748 mmHg 79%
10:00 +6°C° 0.1 mm 4 m/s 748 mmHg 77%
11:00 +7°C° 0.1 mm 4 m/s 748 mmHg 75%
12:00 +7°C° 0.1 mm 4 m/s 748 mmHg 73%
13:00 +7°C° 0.3 mm 4 m/s 748 mmHg 75%
14:00 +7°C° 0.3 mm 4 m/s 749 mmHg 77%
15:00 +8°C° 0.3 mm 3 m/s 749 mmHg 79%
16:00 +8°C° 0.2 mm 3 m/s 750 mmHg 80%
17:00 +8°C° 0.2 mm 3 m/s 750 mmHg 81%
18:00 +9°C° 0.2 mm 3 m/s 751 mmHg 82%
19:00 +8°C° 0 mm 3 m/s 751 mmHg 85%
20:00 +7°C° 0 mm 3 m/s 752 mmHg 88%
21:00 +5°C° 0 mm 3 m/s 752 mmHg 90%
22:00 +5°C° 0 mm 3 m/s 752 mmHg 90%
23:00 +5°C° 0 mm 4 m/s 753 mmHg 90%

10 Mai, Luni

Timp Temperatura Precipitaţii Vânt Presiune Umiditate
00:00 +5°C° 0 mm 5 m/s 753 mmHg 89%
01:00 +3°C° 0 mm 5 m/s 753 mmHg 90%
02:00 +3°C° 0 mm 5 m/s 754 mmHg 90%
03:00 +3°C° 0 mm 5 m/s 754 mmHg 90%
04:00 +3°C° 0 mm 5 m/s 755 mmHg 89%
05:00 +3°C° 0 mm 5 m/s 755 mmHg 87%
06:00 +3°C° 0 mm 6 m/s 755 mmHg 86%
07:00 +5°C° 0 mm 6 m/s 756 mmHg 78%
08:00 +8°C° 0 mm 7 m/s 756 mmHg 71%
09:00 +9°C° 0 mm 8 m/s 756 mmHg 64%
10:00 +10°C° 0 mm 7 m/s 756 mmHg 62%
11:00 +10°C° 0 mm 7 m/s 756 mmHg 60%
12:00 +11°C° 0 mm 6 m/s 756 mmHg 59%
13:00 +11°C° 0 mm 6 m/s 757 mmHg 59%
14:00 +11°C° 0 mm 6 m/s 757 mmHg 59%
15:00 +13°C° 0 mm 6 m/s 757 mmHg 60%
16:00 +11°C° 0 mm 6 m/s 757 mmHg 62%
17:00 +11°C° 0 mm 6 m/s 757 mmHg 64%
18:00 +11°C° 0 mm 6 m/s 756 mmHg 66%
19:00 +10°C° 0 mm 5 m/s 757 mmHg 70%
20:00 +9°C° 0 mm 5 m/s 757 mmHg 73%
21:00 +8°C° 0 mm 5 m/s 757 mmHg 77%
22:00 +8°C° 0 mm 5 m/s 757 mmHg 78%
23:00 +8°C° 0 mm 5 m/s 757 mmHg 79%

11 Mai, Marţi

Timp Temperatura Precipitaţii Vânt Presiune Umiditate
00:00 +7°C° 0 mm 5 m/s 757 mmHg 81%
01:00 +7°C° 0 mm 5 m/s 757 mmHg 81%
02:00 +7°C° 0 mm 5 m/s 756 mmHg 82%
03:00 +7°C° 0 mm 5 m/s 756 mmHg 82%
04:00 +7°C° 0 mm 5 m/s 757 mmHg 82%
05:00 +7°C° 0 mm 5 m/s 757 mmHg 81%
06:00 +7°C° 0 mm 5 m/s 757 mmHg 81%
07:00 +9°C° 0 mm 6 m/s 757 mmHg 77%
08:00 +11°C° 0 mm 6 m/s 757 mmHg 72%
09:00 +14°C° 0 mm 6 m/s 757 mmHg 68%
10:00 +15°C° 0 mm 6 m/s 757 mmHg 66%
11:00 +17°C° 0 mm 6 m/s 757 mmHg 64%
12:00 +19°C° 0 mm 6 m/s 757 mmHg 62%
13:00 +20°C° 0 mm 6 m/s 757 mmHg 61%
14:00 +20°C° 0 mm 6 m/s 757 mmHg 60%
15:00 +21°C° 0 mm 6 m/s 756 mmHg 59%
16:00 +20°C° 0 mm 6 m/s 756 mmHg 63%
17:00 +20°C° 0 mm 5 m/s 756 mmHg 67%
18:00 +19°C° 0 mm 5 m/s 756 mmHg 71%
19:00 +17°C° 0 mm 5 m/s 756 mmHg 75%
20:00 +16°C° 0 mm 5 m/s 756 mmHg 80%
21:00 +14°C° 0 mm 5 m/s 756 mmHg 84%
22:00 +14°C° 0 mm 5 m/s 756 mmHg 84%
23:00 +14°C° 0 mm 4 m/s 756 mmHg 84%
Arată mai mult

Formular de consimțământ

Meteoprog și furnizorii noștri de servicii pot stoca și accesa date personale, precum cookies, identificatori de dispozitiv sau alte tehnologii similare pe dispozitivul dumneavoastră și procesa astfel de date pentru a personaliza conținutul și reclamele, dar și pentru a oferi caracteristici de social media și pentru a analiza traficul.

  • Stocarea și/sau accesarea informațiilor pe dispozitivul dumneavoastră

    Cookies, identificatori de dispozitiv sau alte informații pot fi stocate sau accesate pe dispozitiv în scopurile indicate mai sus.

  • Reclame și conținut personalizat, evaluarea reclamelor și a conținutului, informații despre audiențe și dezvoltarea produselor

    Reclamele și conținutul pot fi personalizate pe baza unui profil. Pot fi adăugate date suplimentare pentru a personaliza mai bine reclamele și conținutul. Performanța reclamelor și conținutului poate fi măsurată. Pot fi obținute informații despre utilizatorii care au văzut reclamele și conținutul. Aceste date pot fi utilizate pentru a dezvolta sau îmbunătăți experiența utilizatorilor, sistemele și software-ul.

Dând clic pe ‘Sunt de acord’, permiteți utilizarea cookie-urilor menționate, a identificatorilor de dispozitiv, balizelor web sau altor tehnologii similare. Setările pot fi modificate din browser-ul dispozitivului dumneavoastră.

În anumite scopuri, interesele legitime pot prima asupra consimțământului. Puteți citi mai multe informații în acest sens în Politica privind Confidențialitatea Datelor și Cookie.